• In Deutschland
  • Länderverzeichnis
  • Für 7 Tage
  • Wassertemperatur
  • Satellitenkarten
  • Wetterkarte
  • Widgets
  • user-avatar
    Anmelden

    Stündliche Wetter Annaburg

    Heute, 22 Oktober, Sonntag

    Zeit Temperatur Niederschläge Wind Luftdruck Luftfeuchtigkeit
    00:00 +12°C° 0,8 mm 3 m/S 753 mmHg 91%
    01:00 +13°C° 0 mm 3 m/S 753 mmHg 91%
    02:00 +12°C° 1,4 mm 4 m/S 752 mmHg 90%
    03:00 +12°C° 1,4 mm 4 m/S 752 mmHg 90%
    04:00 +12°C° 1,4 mm 4 m/S 752 mmHg 89%
    05:00 +11°C° 0,1 mm 4 m/S 752 mmHg 88%
    06:00 +11°C° 0,1 mm 4 m/S 752 mmHg 87%
    07:00 +10°C° 0,1 mm 4 m/S 752 mmHg 87%
    08:00 +10°C° 0 mm 5 m/S 752 mmHg 83%
    09:00 +10°C° 0 mm 5 m/S 752 mmHg 79%
    10:00 +12°C° 0 mm 5 m/S 753 mmHg 75%
    11:00 +11°C° 0 mm 6 m/S 752 mmHg 71%
    12:00 +13°C° 0 mm 6 m/S 752 mmHg 67%
    13:00 +12°C° 0 mm 7 m/S 752 mmHg 63%
    14:00 +13°C° 0 mm 6 m/S 752 mmHg 66%
    15:00 +12°C° 0 mm 5 m/S 752 mmHg 68%
    16:00 +10°C° 0 mm 5 m/S 752 mmHg 70%
    17:00 +10°C° 0,2 mm 5 m/S 752 mmHg 74%
    18:00 +9°C° 0,2 mm 5 m/S 752 mmHg 77%
    19:00 +9°C° 0,2 mm 5 m/S 752 mmHg 81%
    20:00 +9°C° 0,5 mm 5 m/S 752 mmHg 83%
    21:00 +9°C° 0,5 mm 5 m/S 752 mmHg 85%
    22:00 +8°C° 0,5 mm 5 m/S 753 mmHg 87%
    23:00 +8°C° 0,2 mm 5 m/S 753 mmHg 87%

    Morgen, 23 Oktober, Montag

    Zeit Temperatur Niederschläge Wind Luftdruck Luftfeuchtigkeit
    00:00 +8°C° 0,2 mm 4 m/S 753 mmHg 87%
    01:00 +8°C° 0,2 mm 4 m/S 753 mmHg 87%
    02:00 +7°C° 0 mm 4 m/S 753 mmHg 88%
    03:00 +8°C° 0 mm 3 m/S 753 mmHg 90%
    04:00 +7°C° 0 mm 3 m/S 753 mmHg 91%
    05:00 +7°C° 0 mm 3 m/S 753 mmHg 91%
    06:00 +5°C° 0 mm 3 m/S 753 mmHg 92%
    07:00 +5°C° 0 mm 3 m/S 754 mmHg 92%
    08:00 +7°C° 0 mm 3 m/S 754 mmHg 89%
    09:00 +8°C° 0 mm 3 m/S 754 mmHg 85%
    10:00 +8°C° 0 mm 4 m/S 754 mmHg 82%
    11:00 +10°C° 0 mm 4 m/S 754 mmHg 81%
    12:00 +11°C° 0 mm 3 m/S 755 mmHg 80%
    13:00 +11°C° 0 mm 3 m/S 755 mmHg 79%
    14:00 +11°C° 0,1 mm 3 m/S 755 mmHg 81%
    15:00 +11°C° 0,1 mm 3 m/S 755 mmHg 83%
    16:00 +12°C° 0,1 mm 2 m/S 756 mmHg 85%
    17:00 +10°C° 0,2 mm 2 m/S 756 mmHg 86%
    18:00 +10°C° 0,2 mm 2 m/S 756 mmHg 88%
    19:00 +10°C° 0,2 mm 2 m/S 757 mmHg 90%
    20:00 +10°C° 0,1 mm 2 m/S 757 mmHg 90%
    21:00 +10°C° 0,1 mm 2 m/S 757 mmHg 91%
    22:00 +10°C° 0,1 mm 2 m/S 758 mmHg 91%
    23:00 +10°C° 0,1 mm 2 m/S 758 mmHg 91%

    übermorgen, 24 Oktober, Dienstag

    Zeit Temperatur Niederschläge Wind Luftdruck Luftfeuchtigkeit
    00:00 +10°C° 0,1 mm 2 m/S 758 mmHg 92%
    01:00 +10°C° 0,1 mm 2 m/S 758 mmHg 92%
    02:00 +10°C° 0 mm 2 m/S 759 mmHg 93%
    03:00 +10°C° 0 mm 2 m/S 759 mmHg 93%
    04:00 +10°C° 0 mm 2 m/S 759 mmHg 93%
    05:00 +10°C° 0,1 mm 3 m/S 759 mmHg 93%
    06:00 +10°C° 0,1 mm 3 m/S 760 mmHg 93%
    07:00 +10°C° 0,1 mm 3 m/S 760 mmHg 93%
    08:00 +10°C° 0 mm 3 m/S 760 mmHg 90%
    09:00 +11°C° 0 mm 3 m/S 760 mmHg 88%
    10:00 +11°C° 0 mm 3 m/S 760 mmHg 85%
    11:00 +12°C° 0 mm 3 m/S 760 mmHg 80%
    12:00 +14°C° 0 mm 2 m/S 760 mmHg 74%
    13:00 +15°C° 0 mm 2 m/S 760 mmHg 69%
    14:00 +15°C° 0 mm 2 m/S 760 mmHg 72%
    15:00 +15°C° 0 mm 2 m/S 760 mmHg 74%
    16:00 +15°C° 0 mm 2 m/S 760 mmHg 77%
    17:00 +14°C° 0 mm 2 m/S 760 mmHg 81%
    18:00 +13°C° 0 mm 2 m/S 760 mmHg 85%
    19:00 +11°C° 0 mm 3 m/S 760 mmHg 89%
    20:00 +11°C° 0 mm 3 m/S 760 mmHg 89%
    21:00 +11°C° 0 mm 3 m/S 760 mmHg 90%
    22:00 +11°C° 0 mm 4 m/S 760 mmHg 90%
    23:00 +12°C° 0,1 mm 4 m/S 760 mmHg 90%

    25 Oktober, Mittwoch

    Zeit Temperatur Niederschläge Wind Luftdruck Luftfeuchtigkeit
    00:00 +12°C° 0,1 mm 4 m/S 759 mmHg 89%
    01:00 +13°C° 0,1 mm 4 m/S 759 mmHg 89%
    02:00 +13°C° 0 mm 4 m/S 759 mmHg 90%
    03:00 +13°C° 0 mm 4 m/S 759 mmHg 90%
    04:00 +13°C° 0 mm 4 m/S 759 mmHg 91%
    05:00 +13°C° 0,2 mm 4 m/S 759 mmHg 91%
    06:00 +13°C° 0,2 mm 4 m/S 759 mmHg 91%
    07:00 +13°C° 0,2 mm 4 m/S 759 mmHg 91%
    08:00 +14°C° 0 mm 4 m/S 759 mmHg 88%
    09:00 +14°C° 0 mm 4 m/S 759 mmHg 85%
    10:00 +15°C° 0 mm 5 m/S 759 mmHg 83%
    11:00 +16°C° 0 mm 5 m/S 759 mmHg 80%
    12:00 +17°C° 0 mm 5 m/S 759 mmHg 76%
    13:00 +17°C° 0 mm 5 m/S 759 mmHg 73%
    14:00 +17°C° 0 mm 5 m/S 758 mmHg 74%
    15:00 +18°C° 0 mm 4 m/S 758 mmHg 75%
    16:00 +18°C° 0 mm 4 m/S 758 mmHg 77%
    17:00 +17°C° 0 mm 4 m/S 758 mmHg 80%
    18:00 +15°C° 0 mm 5 m/S 758 mmHg 82%
    19:00 +14°C° 0 mm 5 m/S 759 mmHg 85%
    20:00 +14°C° 0 mm 5 m/S 759 mmHg 85%
    21:00 +14°C° 0 mm 5 m/S 760 mmHg 84%
    22:00 +14°C° 0 mm 4 m/S 760 mmHg 84%
    23:00 +14°C° 0 mm 4 m/S 760 mmHg 86%

    26 Oktober, Donnerstag

    Zeit Temperatur Niederschläge Wind Luftdruck Luftfeuchtigkeit
    00:00 +13°C° 0 mm 4 m/S 760 mmHg 88%
    01:00 +13°C° 0 mm 3 m/S 761 mmHg 91%
    02:00 +12°C° 0 mm 3 m/S 761 mmHg 92%
    03:00 +12°C° 0 mm 3 m/S 761 mmHg 94%
    04:00 +11°C° 0 mm 3 m/S 761 mmHg 95%
    05:00 +11°C° 0 mm 3 m/S 761 mmHg 95%
    06:00 +11°C° 0 mm 3 m/S 761 mmHg 95%
    07:00 +10°C° 0 mm 3 m/S 761 mmHg 95%
    08:00 +12°C° 0 mm 3 m/S 762 mmHg 90%
    09:00 +13°C° 0 mm 4 m/S 762 mmHg 84%
    10:00 +14°C° 0 mm 4 m/S 762 mmHg 78%
    11:00 +14°C° 0 mm 4 m/S 761 mmHg 75%
    12:00 +15°C° 0 mm 4 m/S 761 mmHg 71%
    13:00 +17°C° 0 mm 4 m/S 761 mmHg 68%
    14:00 +15°C° 0 mm 4 m/S 761 mmHg 70%
    15:00 +16°C° 0 mm 3 m/S 760 mmHg 72%
    16:00 +16°C° 0 mm 3 m/S 760 mmHg 74%
    17:00 +14°C° 0 mm 3 m/S 760 mmHg 78%
    18:00 +13°C° 0 mm 3 m/S 760 mmHg 82%
    19:00 +12°C° 0 mm 3 m/S 760 mmHg 86%
    20:00 +12°C° 0 mm 3 m/S 760 mmHg 87%
    21:00 +11°C° 0 mm 3 m/S 759 mmHg 88%
    22:00 +11°C° 0 mm 3 m/S 759 mmHg 90%
    23:00 +11°C° 0 mm 3 m/S 759 mmHg 91%

    27 Oktober, Freitag

    Zeit Temperatur Niederschläge Wind Luftdruck Luftfeuchtigkeit
    00:00 +11°C° 0 mm 3 m/S 759 mmHg 92%
    01:00 +11°C° 0 mm 3 m/S 758 mmHg 93%
    02:00 +10°C° 0 mm 3 m/S 758 mmHg 94%
    03:00 +10°C° 0 mm 3 m/S 757 mmHg 94%
    04:00 +10°C° 0 mm 3 m/S 757 mmHg 95%
    05:00 +10°C° 0 mm 3 m/S 756 mmHg 94%
    06:00 +10°C° 0 mm 3 m/S 756 mmHg 93%
    07:00 +11°C° 0 mm 3 m/S 755 mmHg 92%
    08:00 +12°C° 0 mm 4 m/S 754 mmHg 89%
    09:00 +12°C° 0 mm 4 m/S 754 mmHg 86%
    10:00 +13°C° 0 mm 5 m/S 753 mmHg 83%
    11:00 +14°C° 0,2 mm 5 m/S 752 mmHg 80%
    12:00 +14°C° 0,2 mm 6 m/S 751 mmHg 76%
    13:00 +15°C° 0,2 mm 7 m/S 750 mmHg 73%
    14:00 +15°C° 0,7 mm 7 m/S 749 mmHg 76%
    15:00 +14°C° 0,7 mm 7 m/S 748 mmHg 78%
    16:00 +12°C° 0,7 mm 7 m/S 748 mmHg 81%
    17:00 +11°C° 1,5 mm 7 m/S 748 mmHg 83%
    18:00 +10°C° 1,5 mm 7 m/S 748 mmHg 84%
    19:00 +8°C° 1,5 mm 7 m/S 749 mmHg 86%
    20:00 +8°C° 0,1 mm 7 m/S 750 mmHg 85%
    21:00 +8°C° 0,1 mm 6 m/S 751 mmHg 85%
    22:00 +8°C° 0,1 mm 6 m/S 752 mmHg 84%
    23:00 +8°C° 0 mm 6 m/S 752 mmHg 85%
    Mehr zeigen